Change the Weather History Date:

Saturday, September 14, 2013

  Actual Average Record
Temperature  
Mean Temperature 58 °F -  
Max Temperature 68 °F 70 °F 88 °F (1990)
Min Temperature 48 °F 49 °F 32 °F (1996)
Degree Days  
Heating Degree Days 7    
Growing Degree Days 8 (Base 50)    
Moisture  
Dew Point 46 °F    
Average Humidity 62    
Maximum Humidity 72    
Minimum Humidity 43    
Precipitation  
Precipitation 0.00 in - - ()
Sea Level Pressure  
Sea Level Pressure 29.97 in    
Wind  
Wind Speed 11 mph (South)    
Max Wind Speed 21 mph    
Max Gust Speed 26 mph    
Visibility 10 miles    
Events      
Averages and records for this station are not official NWS values.
T = Trace of Precipitation, MM = Missing Value Source: NWS Daily Summary

Daily Weather History Graph

Daily Weather History Graph

Search for Another Location

Airport or City:

Trip Planner

Search our weather history database for the weather conditions in past years. The results will help you decide how hot, cold, wet, or windy it might be!

Date:

Astronomy

Sep. 14, 2013 Rise Set
Actual Time 7:00 AM CDT 7:33 PM CDT
Civil Twilight 6:31 AM CDT 8:02 PM CDT
Nautical Twilight 5:57 AM CDT 8:36 PM CDT
Astronomical Twilight 5:22 AM CDT 9:11 PM CDT
Moon 4:23 PM CDT (9/14) 1:25 AM CDT (9/14)
Length of Visible Light 13h 30m
Length of Day
12h 33m
Waxing Gibbous, 72% of the Moon is Illuminated
Sep 14
Waxing Gibbous
Sep 19
Full
Sep 26
Last Quarter
Oct 4
New
Oct 11
First Quarter

Hourly Weather History & Observations

Time (CDT) Temp. Dew Point Humidity Pressure Visibility Wind Dir Wind Speed Gust Speed Precip Events Conditions
12:15 AM 55.4 °F 42.8 °F 63% 30.09 in 10.0 mi South 8.1 mph - N/A   Clear
12:35 AM 53.6 °F 42.8 °F 67% 30.09 in 10.0 mi South 8.1 mph - N/A   Clear
12:55 AM 53.6 °F 42.8 °F 67% 30.09 in 10.0 mi South 8.1 mph - N/A   Clear
1:15 AM 53.6 °F 42.8 °F 67% 30.09 in 10.0 mi South 9.2 mph - N/A   Clear
1:35 AM 53.6 °F 42.8 °F 67% 30.09 in 10.0 mi South 9.2 mph - N/A   Clear
1:55 AM 53.6 °F 42.8 °F 67% 30.09 in 10.0 mi SSE 9.2 mph - N/A   Clear
2:15 AM 53.6 °F 41.0 °F 62% 30.08 in 10.0 mi SSE 8.1 mph - N/A   Clear
2:35 AM 53.6 °F 41.0 °F 62% 30.08 in 10.0 mi SSE 8.1 mph - N/A   Clear
2:55 AM 51.8 °F 42.8 °F 71% 30.08 in 10.0 mi South 8.1 mph - N/A   Clear
3:15 AM 51.8 °F 42.8 °F 71% 30.08 in 10.0 mi South 10.4 mph - N/A   Clear
3:35 AM 51.8 °F 41.0 °F 67% 30.07 in 10.0 mi South 6.9 mph - N/A   Clear
3:55 AM 51.8 °F 41.0 °F 67% 30.07 in 10.0 mi South 5.8 mph - N/A   Clear
4:15 AM 51.8 °F 41.0 °F 67% 30.07 in 10.0 mi South 9.2 mph - N/A   Clear
4:35 AM 51.8 °F 41.0 °F 67% 30.06 in 10.0 mi South 10.4 mph - N/A   Clear
4:55 AM 51.8 °F 41.0 °F 67% 30.06 in 10.0 mi South 10.4 mph - N/A   Clear
5:15 AM 51.8 °F 41.0 °F 67% 30.06 in 10.0 mi South 9.2 mph - N/A   Clear
5:35 AM 50.0 °F 41.0 °F 71% 30.06 in 10.0 mi SSW 8.1 mph - N/A   Clear
5:55 AM 50.0 °F 39.2 °F 66% 30.06 in 10.0 mi South 10.4 mph - N/A   Clear
6:15 AM 48.2 °F 39.2 °F 71% 30.06 in 10.0 mi South 9.2 mph - N/A   Clear
6:35 AM 48.2 °F 39.2 °F 71% 30.05 in 10.0 mi South 9.2 mph - N/A   Clear
6:55 AM 48.2 °F 39.2 °F 71% 30.05 in 10.0 mi South 8.1 mph - N/A   Clear
7:15 AM 48.2 °F 39.2 °F 71% 30.05 in 10.0 mi South 9.2 mph - N/A   Clear
7:35 AM 48.2 °F 39.2 °F 71% 30.05 in 10.0 mi South 8.1 mph - N/A   Clear
7:55 AM 51.8 °F 39.2 °F 62% 30.05 in 10.0 mi South 8.1 mph - N/A   Clear
8:15 AM 53.6 °F 41.0 °F 62% 30.04 in 10.0 mi South 10.4 mph - N/A   Mostly Cloudy
8:35 AM 57.2 °F 42.8 °F 59% 30.04 in 10.0 mi South 11.5 mph 18.4 mph N/A   Overcast
8:55 AM 57.2 °F 42.8 °F 59% 30.04 in 10.0 mi South 12.7 mph - N/A   Overcast
9:15 AM 59.0 °F 42.8 °F 55% 30.03 in 10.0 mi South 13.8 mph 19.6 mph N/A   Overcast
9:35 AM 60.8 °F 44.6 °F 55% 30.03 in 10.0 mi South 13.8 mph - N/A   Overcast
9:55 AM 62.6 °F 42.8 °F 48% 30.03 in 10.0 mi South 15.0 mph 21.9 mph N/A   Mostly Cloudy
10:15 AM 62.6 °F 42.8 °F 48% 30.03 in 10.0 mi SSW 15.0 mph 24.2 mph N/A   Overcast
10:35 AM 62.6 °F 42.8 °F 48% 30.03 in 10.0 mi SSW 13.8 mph 20.7 mph N/A   Overcast
10:55 AM 64.4 °F 42.8 °F 45% 30.02 in 10.0 mi South 16.1 mph 21.9 mph N/A   Mostly Cloudy
11:15 AM 64.4 °F 44.6 °F 49% 30.01 in 10.0 mi South 16.1 mph 23.0 mph N/A   Mostly Cloudy
11:35 AM 64.4 °F 44.6 °F 49% 30.01 in 10.0 mi South 20.7 mph 25.3 mph N/A   Scattered Clouds
11:55 AM 64.4 °F 44.6 °F 49% 30.00 in 10.0 mi South 18.4 mph 26.5 mph N/A   Partly Cloudy
12:15 PM 68.0 °F 44.6 °F 43% 29.99 in 10.0 mi SSW 18.4 mph 26.5 mph N/A   Scattered Clouds
12:35 PM 68.0 °F 46.4 °F 46% 29.99 in 10.0 mi SSW 17.3 mph 26.5 mph N/A   Scattered Clouds
12:55 PM 68.0 °F 44.6 °F 43% 29.98 in 10.0 mi South 19.6 mph 26.5 mph N/A   Scattered Clouds
1:15 PM 66.2 °F 44.6 °F 46% 29.98 in 10.0 mi South 19.6 mph 26.5 mph N/A   Scattered Clouds
1:35 PM 66.2 °F 44.6 °F 46% 29.97 in 10.0 mi South 17.3 mph 24.2 mph N/A   Mostly Cloudy
1:55 PM 66.2 °F 44.6 °F 46% 29.96 in 10.0 mi SSW 17.3 mph 26.5 mph N/A   Mostly Cloudy
2:15 PM 66.2 °F 46.4 °F 49% 29.95 in 10.0 mi South 15.0 mph 21.9 mph N/A   Mostly Cloudy
2:35 PM 66.2 °F 46.4 °F 49% 29.95 in 10.0 mi South 16.1 mph 24.2 mph N/A   Mostly Cloudy
2:55 PM 60.8 °F 48.2 °F 63% 29.94 in 7.0 mi South 10.4 mph 26.5 mph N/A   Overcast
3:15 PM 60.8 °F 51.8 °F 72% 29.93 in 10.0 mi South 9.2 mph - N/A   Mostly Cloudy
3:35 PM 60.8 °F 51.8 °F 72% 29.93 in 10.0 mi South 9.2 mph - N/A   Overcast
3:55 PM 62.6 °F 50.0 °F 63% 29.91 in 10.0 mi South 13.8 mph - N/A   Overcast
4:15 PM 62.6 °F 50.0 °F 63% 29.91 in 10.0 mi South 12.7 mph - N/A   Overcast
4:35 PM 62.6 °F 51.8 °F 68% 29.89 in 9.0 mi South 12.7 mph - N/A   Overcast
4:55 PM 64.4 °F 50.0 °F 59% 29.88 in 10.0 mi South 12.7 mph - N/A   Mostly Cloudy
5:15 PM 64.4 °F 50.0 °F 59% 29.87 in 10.0 mi SSE 13.8 mph 19.6 mph N/A   Mostly Cloudy
5:35 PM 64.4 °F 48.2 °F 56% 29.86 in 10.0 mi South 16.1 mph 21.9 mph N/A   Mostly Cloudy
5:55 PM 64.4 °F 50.0 °F 59% 29.86 in 10.0 mi South 13.8 mph 18.4 mph N/A   Mostly Cloudy
6:15 PM 66.2 °F 50.0 °F 56% 29.85 in 10.0 mi South 12.7 mph 20.7 mph N/A   Overcast
6:35 PM 64.4 °F 50.0 °F 59% 29.85 in 9.0 mi South 17.3 mph 23.0 mph N/A   Overcast
6:55 PM 62.6 °F 51.8 °F 68% 29.85 in 10.0 mi South 16.1 mph 21.9 mph N/A   Mostly Cloudy
7:15 PM 62.6 °F 51.8 °F 68% 29.85 in 10.0 mi South 15.0 mph 21.9 mph N/A   Mostly Cloudy
7:35 PM 62.6 °F 51.8 °F 68% 29.85 in 10.0 mi SSW 12.7 mph - N/A   Overcast
7:55 PM 62.6 °F 51.8 °F 68% 29.85 in 10.0 mi SSW 10.4 mph 18.4 mph N/A   Overcast
8:15 PM 62.6 °F 51.8 °F 68% 29.86 in 10.0 mi SSW 10.4 mph 16.1 mph N/A   Mostly Cloudy
8:35 PM 62.6 °F 50.0 °F 63% 29.85 in 10.0 mi SSW 12.7 mph - N/A   Scattered Clouds
8:55 PM 62.6 °F 50.0 °F 63% 29.85 in 10.0 mi SSW 13.8 mph - N/A   Scattered Clouds
9:15 PM 62.6 °F 50.0 °F 63% 29.85 in 10.0 mi SSW 12.7 mph - N/A   Scattered Clouds
9:35 PM 62.6 °F 50.0 °F 63% 29.85 in 10.0 mi SSW 11.5 mph - N/A   Clear
9:55 PM 62.6 °F 50.0 °F 63% 29.85 in 10.0 mi SSW 11.5 mph - N/A   Clear
10:15 PM 62.6 °F 50.0 °F 63% 29.85 in 10.0 mi SSW 11.5 mph - N/A   Clear
10:35 PM 60.8 °F 51.8 °F 72% 29.84 in 10.0 mi SSW 11.5 mph - N/A   Clear
10:55 PM 60.8 °F 51.8 °F 72% 29.85 in 10.0 mi SSW 11.5 mph - N/A   Scattered Clouds
11:15 PM 62.6 °F 51.8 °F 68% 29.85 in 10.0 mi SSW 11.5 mph 17.3 mph N/A   Overcast
11:35 PM 62.6 °F 51.8 °F 68% 29.84 in 10.0 mi South 10.4 mph - N/A   Mostly Cloudy
11:55 PM 62.6 °F 51.8 °F 68% 29.84 in 10.0 mi SSW 11.5 mph 16.1 mph N/A   Mostly Cloudy